Погода в Барабинске

Погода в Барабинске : погода сейчас, прогноз погоды и архив. Всё, что Вы хотите узнать о погоде в Барабинске!

Хотите узнать прогноз погоды в Барабинске? Тогда Вам сюда: Погода в Барабинске

Поиск расширенной информации на нашем сайте:

Другие новости

Новости СМИ2

Главная страница сайта

Новости сайта

02.10.2013

Напоминаем, что на нашем новом сайте вы можете получить высокодетализированные прогнозы погоды по пунктам России, СНГ и мира (включающие важные для авиации метеовеличины, такие как направление и скорость ветра, видимость, явления погоды, количество и форма облачности, нижняя и верхняя граница облачности), а также ознакомиться с разнообразными материалами по авиационной метеорологии и подборкой полезных ссылок на эту тему.

Сайт Метеоцентр.Азия посвящён разработке технологий оптимизации авиаметеорологического обслуживания, включая проектирование и перспективное создание нескольких автоматизированных авиаметеорологических систем:
- система выпуска высокодетальных прогностических карт явлений погоды для нижнего воздушного пространства по России и ближнему зарубежью;
- система верификации прогнозов TAF (выпускаемых синоптиками официальных АМСГ РФ и ближнего зарубежья) и AUTOTAF (выпускаемых сайтом Метеоцентр.Азия) - выявление ошибок, онлайн-сопоставление с фактической погодой METAR, автоматическое внесение коррективов в прогнозы при резком отклонении фактической погоды от прогноза, подсчёт оправдываемости прогнозов по элементам и в целом;
- система обработки, анализа и отображения авиаметеорологической информации для применения провайдерами метеорологической информации.

Рекомендуем: Для клиентов Вешняков Компьютерная скорая помощь в тушино по филям.

Погода в Барабинске - сегодня

Время (UTC), дата Ветер
(°,м/с) 
Видим.   Явления Облачность Т
(°С)
Тd
(°С)
f(%) Тe
(°С)
Pmin
(гПа)
dP
(гПа)
Po
(мм)
O2
(г/м3)
Тmin Tmax R s Состояние
почвы
00 26.05.17 240 (ЮЗ) 20000 м    3/0 средняя, верхняя 
[Ac trans|Ci fib]
+4.7 -2.6 59 +4  1019.3  753  299  +2.9        сухая 
03 26.05.17 280 (З) 20000 м    3/0 средняя 
[Ac trans]
+8.4 -2.4 46 +7  1021.4  2.3  755  295           
06 26.05.17 280 (З) 4-10{10}  20000 м    8/8 600 м 
[Cu med, cong]
+10.7 -1.2 44 +10  1023.2  1.9  756  293           
09 26.05.17 280 (З) 4{10}  20000 м    6/6 600 м 
[Cu hum]
+13.3 -2.6 33 +13  1023.8  0.7  757  291           
12 26.05.17 270 (З) 20000 м    ясно 
+14.4 -4.7 26 +15  1024.2  0.4  757  290    +14.7       
15 26.05.17 260 (З) 20000 м    3/0 верхняя 
[Ci fib]
+10.2 -1.8 43 +11  1025.2  0.8  758  295           
18 26.05.17 110 (В) 20000 м    ясно 
+4.5 -0.3 71 +4  1025.8  0.3  758  301           
21 26.05.17 140 (ЮВ) 20000 м    ясно 
+5.1 +0.4 72 +5  1025.9  0.1  758  300           
00 27.05.17 140 (ЮВ) 20000 м    ясно 
+5.6 +1.9 77 +5  1025.7  0.1  758  299  +3.8        сухая 
03 27.05.17 180 (Ю) 20000 м    ясно 
+14.5 -1.4 33 +14  1024.3  -0.9  757  290           
06 27.05.17 190 (Ю) 20000 м    ясно 
+18.1 -1.9 26 +19  1022.2  -2  756  286           
09 27.05.17 160 (Ю) 20000 м    ясно 
+19.9 +0.2 27 +21  1019.8  -2.2  754  283           
12 27.05.17 160 (Ю) 20000 м    ясно 
+20.5 -0.9 24 +21  1017.3  -2.5  752  282    +20.8       
15 27.05.17 120 (ЮВ) 20000 м    6/0 верхняя 
[Ci]
+16.1 +1.9 38 +17  1015.4  -2.1  751  285           
18 27.05.17 120 (ЮВ) 20000 м    3/0 верхняя 
[Ci fib]
+11.6 +2.4 53 +12  1013.7  -1.8  749  289           
21 27.05.17 120 (ЮВ) 20000 м    3/0 верхняя 
[Ci sp]
+9.5 +2.4 61 +9  1011.9  -1.9  748  291           
00 28.05.17 120 (ЮВ) 20000 м    9/0 средняя, верхняя 
[Ac trans|Ci fib]
+11.1 +2.1 54 +11  1009.8  -2  747  289  +9        сухая 
03 28.05.17 140 (ЮВ) 20000 м    9/6 600 м средняя 
[Sc|Ac trans]
+16.9 +3.3 40 +17  1007.5  -2  745  282           
06 28.05.17 120 (ЮВ) 6{10}  20000 м    9/0 средняя 
[Ac trans]
+21.6 +3.1 30 +22  1004.2  -3  743  277           
12 28.05.17 130 (ЮВ) 5{13}  20000 м    9/6 600 м кучево-дожд., средняя 
[Cb calv|Ac trans]
+25.2 +5.3 28 +25  999.5  -1.9  739  272    +27.4       
15 28.05.17 170 (Ю) 20000 м    8/3 600 м кучево-дожд., верхняя 
[Cb calv|Ci fib]
+22.6 +8.5 40 +23  999.5  -0.1  739  274           
18 28.05.17 170 (Ю) 20000 м  {гроза}  ясно 
+17 +8.1 56 +18  999.9  0.1  739  279           
21 28.05.17 210 (ЮЗ) 20000 м    ясно 
+14.8 +9.1 69 +15  1000.9  0.9  740  281           
00 29.05.17 220 (ЮЗ) 20000 м    3/0 верхняя 
[Ci fib]
+14.8 +9.9 72 +16  1002.8  1.9  742  282  +13.7        сухая 
03 29.05.17 200 (Ю) 20000 м    4/0 верхняя 
[Ci fib]
+19.6 +11.7 60 +24  1003.3  0.7  742  277           
Время (UTC), дата Ветер
(°,м/с) 
Видим.   Явления Облачность Т
(°С)
Тd
(°С)
f(%) Тe
(°С)
Pmin
(гПа)
dP
(гПа)
Po
(мм)
O2
(г/м3)
Тmin Tmax R s Состояние
почвы

Для получения пояснительной информации подведите курсор к названию столбца.

ПОГОДА в Барабинске - архив

Всё, что Вы хотите узнать о погоде в Барабинске - удобно и подробно!

Выберите нужную дату (начиная с 1 января 2015* года) и нажмите кнопку "Найти".
Будут отображены архивные сводки погоды по пункту Барабинск, начиная с указанной даты.


Отображать данные в формате CSV (для использования в таблицах Excel)


Внимание! Наш архив погоды предназначен исключительно для личного некоммерческого использования в познавательных целях. Если Вам необходимы официальные справки о состоянии погоды (для производственных, юридических, коммерческих и т.п. целей), обращайтесь в органы Росгидромета.

*Примечание: данная дата относится к архиву по метеостанциям СССР (Россия, СНГ, Балтия).
Архив по метеостанциям Зарубежной Европы и Азии (кроме Китая) хранится 10 дней, по другим регионам земного шара (Китай, Африка, Америка, Австралия, Океания) - 1 день.

Барабинск - район местоположения метеостанции


Название, широта, долгота, высота метеостанции:
Барабинск 55.3°ш. 78.4°д. 120 м над ур. моря [Российская Федерация]

Дополнительная информация

В oтличие oт бoльшинства пoгoдных сайтoв мы публикуем пoдрoбную метеoинфoрмацию в детальнoм прoфессиoнальнoм фoрмате.

Характеристики температуры и влажнoсти вoздуха измеряются на высoте 2 м в тени вдали oт зданий и деревьев.
Скoрoсть ветра измеряется на высoте 10 м (на урoвне рoста челoвека скoрoсть ветра ниже в 1.5-2 раза). Если метеoстанция нахoдится в гoрoде или в лесу, тo скoрoсть ветра занижена на 2-4 м/с пo сравнению с oткрытым местoм. Скoрoсть ветра над акватoриями крупных рек и oзёр, а также на вершинах хoлмoв на 2-5 м/с выше, чем в oбычных услoвиях.
Атмoсфернoе давление в разных тoчках местнoсти мoжет значительнo oтличаться oт давления на метеoстанции, в зависимoсти oт услoвий рельефа (при пoдъёме на 10 м давление пoнижается примернo на 1 мм рт.ст.).